User: anonymous   Login
Location: Eyeline Observatory
(43.2182°N, 78.8632°W)
Time: 19:27:29
(UTC-04:00)
Language:

SO-50 - Orbit

View from above orbital plane
View from above orbital plane
View from above satellite
View from above satellite

Ground track
Ground track

The orbit data is extracted from the following two-line orbital elements,

1 27607U 02058C   18200.88156161 -.00000039  00000-0  15297-4 0  9995
2 27607  64.5558 350.0955 0068591 321.3308  38.2894 14.75465199837781
Epoch (UTC): 19 July 2018 21:09:26
Eccentricity: 0.0068591
inclination: 64.5558°
perigee height: 595 km
apogee height: 692 km
right ascension of ascending node: 350.0955°
argument of perigee: 321.3308°
revolutions per day: 14.75465199
mean anomaly at epoch: 38.2894°
orbit number at epoch: 83778

The dashed part of the orbit path shows where the satellite is in the earth's shadow,  

DLR